TimeEDT,TemperatureF,Dew PointF,Humidity,Sea Level PressureIn,VisibilityMPH,Wind Direction,Wind SpeedMPH,Gust SpeedMPH,PrecipitationIn,Events,Conditions,WindDirDegrees,DateUTC
12:54 AM,-0.0,-8.0,69,30.25,-9999.0,North,-9999.0,-,N/A,,Unknown,0,2014-03-18 04:54:00
1:54 AM,-2.0,-9.0,72,30.27,-9999.0,North,-9999.0,-,N/A,,Unknown,0,2014-03-18 05:54:00
2:54 AM,-4.0,-9.0,79,30.29,-9999.0,North,-9999.0,-,N/A,,Unknown,0,2014-03-18 06:54:00
3:54 AM,-5.1,-9.9,80,30.30,-9999.0,North,-9999.0,-,N/A,,Unknown,0,2014-03-18 07:54:00
4:54 AM,-7.1,-11.0,83,30.30,-9999.0,North,-9999.0,-,N/A,,Unknown,0,2014-03-18 08:54:00
5:54 AM,-8.0,-13.0,79,30.32,-9999.0,North,-9999.0,-,N/A,,Unknown,0,2014-03-18 09:54:00
6:54 AM,-9.0,-14.1,79,30.36,-9999.0,North,-9999.0,-,N/A,,Unknown,0,2014-03-18 10:54:00
7:54 AM,-8.0,-13.0,79,30.38,-9999.0,North,-9999.0,-,N/A,,Unknown,0,2014-03-18 11:54:00
8:54 AM,-2.9,-9.9,72,30.40,-9999.0,North,-9999.0,-,N/A,,Unknown,0,2014-03-18 12:54:00
9:54 AM,5.0,-7.1,58,30.39,-9999.0,North,-9999.0,-,N/A,,Unknown,0,2014-03-18 13:54:00
10:54 AM,12.9,-4.0,47,30.38,-9999.0,North,-9999.0,-,N/A,,Unknown,0,2014-03-18 14:54:00
11:54 AM,21.0,-2.0,36,30.36,-9999.0,North,-9999.0,-,N/A,,Unknown,0,2014-03-18 15:54:00
12:54 PM,24.1,-5.1,28,30.34,-9999.0,North,-9999.0,-,N/A,,Unknown,0,2014-03-18 16:54:00
1:54 PM,28.9,-5.1,23,30.33,-9999.0,North,-9999.0,-,N/A,,Unknown,0,2014-03-18 17:54:00
2:54 PM,30.9,-4.0,22,30.32,-9999.0,North,-9999.0,-,N/A,,Unknown,0,2014-03-18 18:54:00
3:54 PM,35.1,-5.1,18,30.32,-9999.0,North,-9999.0,-,N/A,,Unknown,0,2014-03-18 19:54:00
4:54 PM,35.1,-2.0,21,30.31,-9999.0,North,-9999.0,-,N/A,,Unknown,0,2014-03-18 20:54:00
5:54 PM,35.1,-4.0,19,30.32,-9999.0,North,-9999.0,-,N/A,,Unknown,0,2014-03-18 21:54:00
6:54 PM,30.0,8.1,40,30.33,-9999.0,North,-9999.0,-,N/A,,Unknown,0,2014-03-18 22:54:00
7:54 PM,27.0,8.1,45,30.34,-9999.0,North,-9999.0,-,N/A,,Unknown,0,2014-03-18 23:54:00
8:54 PM,24.1,7.0,48,30.35,-9999.0,North,-9999.0,-,N/A,,Unknown,0,2014-03-19 00:54:00
9:54 PM,21.0,9.0,60,30.35,-9999.0,North,-9999.0,-,N/A,,Unknown,0,2014-03-19 01:54:00
10:54 PM,18.0,7.0,62,30.35,-9999.0,North,-9999.0,-,N/A,,Unknown,0,2014-03-19 02:54:00
11:54 PM,16.0,6.1,65,30.34,-9999.0,North,-9999.0,-,N/A,,Unknown,0,2014-03-19 03:54:00